This is the latest recevied weather packets stored in our database for station/object KK4KTV-13. If no packets are shown the sender has not sent any weather packets the latest 10 day(s).
| Time | Temp. | Humidity | Pressure | Rain* | Wind** | Luminosity | Snow |
|---|---|---|---|---|---|---|---|
| 1778098145 | 14.44° C | 88% | 1011.9 hPa | 0 mm | - | 110 W/m² | - |
| 1778097841 | 14.44° C | 87% | 1012 hPa | 0 mm | - | 102 W/m² | - |
| 1778097537 | 14.44° C | 87% | 1012.3 hPa | 0 mm | - | 122 W/m² | - |
| 1778097235 | 14.44° C | 87% | 1012.1 hPa | 0 mm | - | 119 W/m² | - |
| 1778096931 | 14.44° C | 86% | 1012.1 hPa | 0 mm | - | 89 W/m² | - |
| 1778096628 | 14.44° C | 85% | 1012.5 hPa | 0 mm | - | 66 W/m² | - |
| 1778096326 | 14.44° C | 85% | 1012.6 hPa | 0 mm | - | 72 W/m² | - |
| 1778096022 | 14.44° C | 85% | 1012.5 hPa | 0 mm | - | 72 W/m² | - |
| 1778095719 | 14.44° C | 85% | 1012.3 hPa | 0 mm | - | 100 W/m² | - |
| 1778095416 | 14.44° C | 85% | 1012.2 hPa | 0 mm | - | 105 W/m² | - |
| 1778089051 | 11.67° C | 98% | 1011.9 hPa | 0 mm | - | 196 W/m² | - |
| 1778088747 | 11.67° C | 98% | 1011.9 hPa | 0 mm | - | 196 W/m² | - |
| 1778088445 | 11.67° C | 98% | 1011.8 hPa | 0 mm | - | 196 W/m² | - |
| 1778088141 | 11.67° C | 98% | 1012 hPa | 0 mm | - | 196 W/m² | - |
| 1778087839 | 11.67° C | 98% | 1011.9 hPa | 0 mm | - | 196 W/m² | - |
| 1778087536 | 11.67° C | 98% | 1012 hPa | 0 mm | - | 196 W/m² | - |
| 1778087233 | 11.67° C | 98% | 1012.1 hPa | 0 mm | - | 196 W/m² | - |
| 1778086930 | 11.67° C | 98% | 1012.2 hPa | 0 mm | - | 196 W/m² | - |
| 1778086628 | 11.67° C | 98% | 1012.2 hPa | 0 mm | - | 196 W/m² | - |
| 1778086324 | 11.67° C | 98% | 1011.9 hPa | 0 mm | - | 196 W/m² | - |
| 1778086022 | 11.67° C | 98% | 1011.8 hPa | 0 mm | - | 196 W/m² | - |
| 1778085719 | 11.67° C | 98% | 1011.9 hPa | 0 mm | - | 196 W/m² | - |
| 1778085415 | 11.11° C | 99% | 1012 hPa | 0 mm | - | 188 W/m² | - |
| 1778085111 | 11.11° C | 99% | 1012.2 hPa | 0 mm | - | 188 W/m² | - |
| 1778084807 | 11.11° C | 99% | 1011.8 hPa | 0 mm | - | 188 W/m² | - |
* Rain latest hour (hover to see other rain measurements)
** Current wind speed in m/s (hover to see current wind gust speed)